Date,TemperatureHighF,TemperatureAvgF,TemperatureLowF,DewpointHighF,DewpointAvgF,DewpointLowF,HumidityHigh,HumidityAvg,HumidityLow,PressureMaxIn,PressureMinIn,WindSpeedMaxMPH,WindSpeedAvgMPH,GustSpeedMaxMPH,PrecipitationSumIn
2013-1-1,48.5,35.4,29.1,42.3,32.7,28.6,99,90,67,30.38,30.23,1,0,6,0.00
2013-1-2,52.8,35.7,28.6,38.5,31.2,27.3,97,85,51,30.24,30.10,3,0,7,0.00
2013-1-3,48.3,38.6,29.0,48.0,34.4,27.3,99,86,57,30.23,30.05,5,1,8,0.46
2013-1-4,55.4,46.1,39.1,50.3,44.5,38.4,99,95,77,30.30,30.12,1,0,6,0.10
2013-1-5,49.6,44.3,40.2,44.3,42.1,39.7,99,92,81,30.17,30.07,4,0,6,0.12
2013-1-6,50.4,44.6,38.3,47.6,43.3,37.8,99,95,84,30.21,30.07,1,0,6,0.18
2013-1-7,51.5,49.0,45.2,50.9,48.4,44.7,99,98,95,30.23,30.02,5,1,13,0.84
2013-1-8,51.7,50.2,47.0,51.0,49.5,46.7,99,98,95,30.21,29.94,3,1,8,0.54
2013-1-9,50.0,41.7,35.6,48.5,40.6,35.1,98,96,86,30.00,29.81,5,0,14,0.77
2013-1-10,42.5,36.3,32.9,41.4,35.7,32.3,99,98,94,30.14,29.99,3,0,14,0.58
2013-1-11,46.4,35.1,30.0,41.8,33.5,29.4,99,94,63,30.30,30.12,2,0,14,0.07
2013-1-12,44.2,32.3,27.4,37.5,30.4,26.7,98,93,65,30.39,30.27,3,0,14,0.00
2013-1-13,40.7,30.2,24.0,35.3,28.1,23.0,98,92,71,30.47,30.38,2,0,14,0.00
2013-1-14,41.6,34.1,27.4,37.4,31.8,25.8,98,91,77,30.54,30.47,1,0,14,0.02
2013-1-15,48.2,37.1,29.0,44.2,36.0,28.3,99,96,83,30.63,30.53,3,0,14,0.00
2013-1-16,50.4,33.5,25.8,44.0,31.6,25.1,98,93,72,30.61,30.42,2,0,14,0.00
2013-1-17,53.6,34.4,25.8,43.7,31.8,25.1,99,91,63,30.42,30.23,2,0,5,0.00
2013-1-18,57.2,35.3,26.3,49.2,33.3,25.6,98,93,68,30.25,30.19,0,0,0,0.00
2013-1-19,52.3,36.9,25.8,45.8,35.0,25.1,98,93,74,30.29,30.21,4,0,5,0.00
2013-1-20,53.7,35.5,27.4,46.2,33.4,26.6,98,93,63,30.30,30.17,1,0,3,0.00
2013-1-21,55.1,33.7,24.3,40.8,30.1,23.3,98,89,46,30.22,30.07,2,0,5,0.00
2013-1-22,59.5,39.3,26.0,38.8,32.7,25.1,98,80,38,30.10,29.89,4,1,8,0.00
2013-1-23,45.7,41.2,36.9,44.9,39.4,35.6,98,93,78,30.12,29.85,3,0,7,0.47
2013-1-24,51.2,45.1,31.5,47.4,43.6,31.0,99,95,83,30.14,30.06,2,0,5,0.15
2013-1-25,51.5,46.8,40.6,51.0,46.1,39.8,99,97,93,30.12,29.95,4,0,6,0.44
2013-1-26,48.2,42.0,38.2,45.3,41.2,37.7,99,97,83,30.11,29.94,5,0,16,0.46
2013-1-27,42.7,39.5,34.5,42.4,39.1,34.1,99,99,98,30.17,30.06,2,0,6,0.88
2013-1-28,46.0,43.7,40.4,44.9,42.9,40.0,99,97,94,30.28,30.11,4,1,11,0.56
2013-1-29,46.9,45.3,44.0,45.7,44.6,43.6,99,97,95,30.51,30.28,6,2,10,0.17
2013-1-30,49.4,46.7,44.3,49.4,46.4,44.0,100,99,97,30.50,30.45,4,0,7,0.62
2013-1-31,55.2,47.2,43.0,50.9,45.5,42.7,100,94,69,30.46,30.34,3,0,6,0.00